Regional Weather Roundup
Issued by NWS

Home | Current Version | Previous Version | Graphics & Text | Print | Product List | Glossary On
Versions: 1 2 3 4 5 6 7 8 9 10 11 12 13 14 15 16 17 18 19 20 21 22 23 24 25 26 27
000
ASUS45 KBOU 232007
RWRCO

WEATHER ROUNDUP FOR COLORADO
NATIONAL WEATHER SERVICE DENVER/BOULDER CO
200 PM MDT TUE AUG 23 2016

NOTE: "FAIR" INDICATES FEW OR NO CLOUDS BELOW 12000 FEET WITH NO
SIGNIFICANT WEATHER AND/OR OBSTRUCTIONS TO VISIBILITY.

COZ001>005-013-030-031-232100-
...NORTHWEST COLORADO...

CITY           SKY/WX    TMP DP  RH WIND       PRES   REMARKS
CRAIG          FAIR      80  34  19 S14G20    30.17F
HAYDEN         FAIR      73  30  20 CALM      30.19F
MEEKER         FAIR      74  42  31 SW6       30.20F
MOUNT WERNER   NOT AVBL
STEAMBOAT SPGS FAIR      73  36  25 SE6       30.22S
WALDEN         FAIR      70  28  21 SW8G16    30.29S
$$

COZ006>008-011-232100-
...WEST CENTRAL VALLEYS...

CITY           SKY/WX    TMP DP  RH WIND       PRES   REMARKS
GRAND JUNCTION FAIR      77  47  34 VRB3      30.13F
MONTROSE       FAIR      72  45  37 W3        30.21F
EAGLE          SUNNY     75  34  22 CALM      30.22F
RIFLE          FAIR      74  46  36 NW5       30.16F
DELTA          NOT AVBL
NUCLA          FAIR      68  45  42 NW3       30.25S
$$

COZ017>023-064>068-232100-
...SOUTHWEST COLORADO...

CITY           SKY/WX    TMP DP  RH WIND       PRES   REMARKS
DURANGO        FAIR      72  44  36 W10       30.23F
CORTEZ         FAIR      75  49  39 S9        30.20S
PAGOSA SPRINGS TSTM      58  50  74 NW9       30.33R
TELLURIDE      TSTM      49  45  84 E3        30.46R
WOLF CREEK PAS   N/A    N/A N/A N/A MISG        N/A
$$

COZ009-010-012-014-032>034-037-058>063-232100-
...CENTRAL COLORADO...

CITY           SKY/WX    TMP DP  RH WIND       PRES   REMARKS
ASPEN          PTSUNNY   71  37  28 N6        30.28F
BUENA VISTA    FAIR      68  32  25 NW8       30.26F
COPPER MTN     CLOUDY    55  30  38 E7        30.58F
BERTHOUD PASS  CLOUDY    45  32  61 N14       30.60S
COTTONWOOD PAS PTSUNNY   64  30  27 CALM      30.40F THUNDER
GUNNISON       FAIR      63  48  59 E3        30.32F
KREMMLING      FAIR      73  32  21 CALM      30.26F
LEADVILLE      FAIR      60  30  32 NW9G20    30.40F
MONARCH PASS   PTSUNNY   50  37  62 SW7       30.65S
SALIDA         FAIR      77  37  22 S5        30.30F
SUNLIGHT       CLOUDY    55  43  62 CALM      30.53S
WILKERSON PASS NOT AVBL
$$

COZ069>075-232100-
...SAN LUIS VALLEY/SANGRE DE CRISTO MOUNTAINS...

CITY           SKY/WX    TMP DP  RH WIND       PRES   REMARKS
ALAMOSA        PTSUNNY   67  44  43 SW13      30.27F
LA VETA PASS   FAIR      64  37  36 S8G17     30.43F
SAGUACHE       FAIR      73  41  31 W8        30.27F
$$

COZ035-036-038>040-232100-
...NORTHERN COLORADO FRONT RANGE...

CITY           SKY/WX    TMP DP  RH WIND       PRES   REMARKS
DENVER INTL AP PTSUNNY   85  34  16 N7        30.07S
DMNS CITY PARK   N/A     81  34  18 W7G15     30.06S
AURORA         PTSUNNY   81  34  18 N7        30.09S
FRONT RANGE AP PTSUNNY   86  32  14 N12G20    30.08S
ERIE MUNI ARPT FAIR      85  31  14 W3        30.05S
BOULDER MUN AP FAIR      86  32  14 SE5       30.06S
CENTENNIAL     PTSUNNY   80  33  18 N10       30.10R
BROOMFIELD     PTSUNNY   84  32  15 S5        30.10S
FORT COLLINS   FAIR      86  34  15 SE5       30.01S
LONGMONT       FAIR      89  34  14 NE5       30.06S
$$

COZ041-046-047-076>085-087-088-232100-
...PIKES PEAK/PALMER DIVIDE AND SOUTHERN FOOTHILLS...

CITY           SKY/WX    TMP DP  RH WIND       PRES   REMARKS
COLO. SPRINGS  PTSUNNY   82  31  15 SE13      30.13S
A. F. ACADEMY  PTSUNNY   78  35  20 E10       30.14S
SCHRIEVER AFB  NOT AVBL
ELLICOTT       NOT AVBL
FALCON         FAIR      78  31  18 E6        30.19S
FORT CARSON    DRIZZLE   79  41  25 SE21      30.10S
LIMON          FAIR      89  27  10 N16G26    30.06F
MONUMENT HILL  CLOUDY    72  30  21 E8        30.21R
TRINIDAD       FAIR      83  36  18 VRB3      30.09F
$$

COZ042>045-048>051-090-091-232100-
...NORTHEAST COLORADO...

CITY           SKY/WX    TMP DP  RH WIND       PRES   REMARKS
GREELEY ARPT   FAIR      86  36  16 NW10      30.03S
AKRON          FAIR      90  27  10 N16G31    30.01S
BURLINGTON     FAIR      94  20   7 N18       29.97R
WRAY           NOT AVBL
STERLING       FAIR      91  32  12 N16G22    29.95S
HOLYOKE        FAIR      95  32  11 N20G32    29.94R
FORT MORGAN    FAIR      93  24   8 N8G20     30.00F
$$

COZ086-089-092>099-232100-
...SOUTHEAST COLORADO...

CITY           SKY/WX    TMP DP  RH WIND       PRES   REMARKS
PUEBLO         FAIR      92  40  16 S10G18    30.00F
LA JUNTA       FAIR      93  39  15 N6        29.98F
LAMAR          FAIR      95  42  16 VRB7      29.91F
SPRINGFIELD      N/A     89  47  23 VRB5      29.99
$$




USA.gov is the U.S. government's official web portal to all federal, state and local government web resources and services.